TimeCDT,TemperatureF,Dew PointF,Humidity,Sea Level PressureIn,VisibilityMPH,Wind Direction,Wind SpeedMPH,Gust SpeedMPH,PrecipitationIn,Events,Conditions,WindDirDegrees,DateUTC
12:53 AM,42.1,36.0,79,29.75,10.0,SW,4.6,-,N/A,,Clear,220,2012-10-09 05:53:00
1:53 AM,39.0,35.1,86,29.76,10.0,Calm,Calm,-,N/A,,Clear,0,2012-10-09 06:53:00
2:53 AM,37.4,33.8,87,29.72,10.0,Calm,Calm,-,N/A,,Overcast,0,2012-10-09 07:53:00
3:53 AM,39.0,35.1,86,29.74,10.0,WSW,3.5,-,N/A,,Overcast,240,2012-10-09 08:53:00
4:53 AM,42.1,35.1,76,29.75,10.0,West,5.8,-,N/A,,Overcast,280,2012-10-09 09:53:00
5:53 AM,44.1,33.1,65,29.76,10.0,West,5.8,-,N/A,,Overcast,280,2012-10-09 10:53:00
6:53 AM,44.1,32.0,63,29.78,10.0,WSW,5.8,-,N/A,,Overcast,240,2012-10-09 11:53:00
7:53 AM,44.1,28.9,55,29.79,8.0,WSW,9.2,-,N/A,,Mostly Cloudy,250,2012-10-09 12:53:00
8:53 AM,44.1,28.9,55,29.79,9.0,WSW,9.2,-,N/A,,Partly Cloudy,250,2012-10-09 13:53:00
9:53 AM,45.0,27.0,49,29.81,10.0,West,20.7,26.5,N/A,,Clear,280,2012-10-09 14:53:00
10:53 AM,46.9,26.1,44,29.81,10.0,West,13.8,23.0,N/A,,Mostly Cloudy,280,2012-10-09 15:53:00
11:53 AM,46.9,26.1,44,29.81,10.0,WNW,20.7,27.6,N/A,,Overcast,290,2012-10-09 16:53:00
12:53 PM,45.0,27.0,49,29.82,10.0,West,19.6,25.3,N/A,,Overcast,270,2012-10-09 17:53:00
1:53 PM,46.9,28.0,48,29.83,10.0,West,18.4,23.0,N/A,,Overcast,280,2012-10-09 18:53:00
2:53 PM,46.0,30.0,54,29.84,10.0,WNW,17.3,27.6,N/A,,Overcast,290,2012-10-09 19:53:00
3:53 PM,44.1,30.0,58,29.87,10.0,NW,20.7,35.7,N/A,,Overcast,320,2012-10-09 20:53:00
4:53 PM,45.0,27.0,49,29.89,10.0,WNW,26.5,33.4,N/A,,Mostly Cloudy,300,2012-10-09 21:53:00
5:53 PM,43.0,25.0,49,29.92,10.0,WNW,20.7,29.9,N/A,,Overcast,290,2012-10-09 22:53:00
6:53 PM,42.1,25.0,51,29.95,10.0,WNW,17.3,25.3,N/A,,Overcast,300,2012-10-09 23:53:00
7:53 PM,41.0,25.0,53,29.98,10.0,WNW,16.1,25.3,N/A,,Overcast,300,2012-10-10 00:53:00
8:53 PM,39.0,25.0,57,30.00,10.0,WNW,11.5,-,N/A,,Mostly Cloudy,300,2012-10-10 01:53:00
9:53 PM,37.9,24.1,57,30.01,10.0,WNW,11.5,-,N/A,,Partly Cloudy,290,2012-10-10 02:53:00
10:53 PM,37.9,24.1,57,30.02,10.0,WNW,12.7,20.7,N/A,,Mostly Cloudy,290,2012-10-10 03:53:00
11:53 PM,36.0,24.1,62,30.02,10.0,WNW,8.1,-,N/A,,Clear,290,2012-10-10 04:53:00